Dewpoint
63 63 64 64 64 63 62 61 61 63 62 63 63 62 60 59 60 61 61 61 59 57 58 59 58 58 56 56 57 58 57 56 56 55 51 51 49 49 53 53 53 52 51 53 51 52 46 40 42 44 45 44 44 49 44 40 38 45 49 48 36 34 43
64 64 64 63 63 63 62 62 61 59 62 63 60 61 58 57 61 59 59 58 59 56 54 56 56 53 55 56 56 55 55 55 55 55 54 53 52 52 55 49 49 48 49 49 49 52 46 47 40 40 42 45 47 45 46 44 43 43 44 46 41 41 43
64 63 62 62 62 62 61 61 62 63 60 62 63 57 62 56 57 58 55 55 57 52 52 52 53 53 54 53 54 55 54 54 54 53 53 53 52 51 51 52 53 53 50 47 46 43 47 45 44 39 42 42 43 44 46 45 43 41 43 42 43 38 38
63 63 62 61 61 61 60 60 62 62 60 61 61 61 59 57 57 56 55 52 55 57 52 48 52 50 52 53 52 53 53 53 53 52 51 51 50 50 48 48 48 48 47 46 45 46 45 45 44 42 39 37 43 41 43 42 42 42 41 42 40 38 38
63 62 61 60 60 60 60 60 61 61 61 60 60 62 60 59 57 58 57 55 55 54 51 51 52 50 50 51 52 53 53 53 53 52 52 50 50 49 49 49 47 47 47 46 47 48 45 45 44 42 39 34 36 39 40 43 42 41 39 39 33 39 42
63 62 61 61 61 60 60 60 60 59 60 59 60 58 60 61 57 57 58 56 55 54 52 51 52 51 52 51 50 50 51 51 51 51 50 50 50 49 49 48 47 46 46 47 47 46 46 47 44 42 40 41 40 40 37 40 41 40 30 34 28 34 31
63 62 62 61 61 61 60 60 59 59 59 59 59 58 57 56 55 57 56 55 53 53 52 52 51 49 50 46 49 49 50 51 51 51 50 50 49 49 48 46 46 46 47 47 46 45 44 44 42 40 41 42 42 39 36 32 29 30 29 23 25 31 32
63 62 62 62 61 61 60 60 60 60 59 58 57 59 57 57 56 55 54 54 53 52 52 51 49 49 50 47 48 50 50 50 50 50 49 49 48 48 48 48 48 47 48 46 46 46 44 44 43 43 41 38 40 46 35 33 27 24 24 24 22 25 30
63 63 62 62 62 61 60 60 60 60 59 59 59 57 57 57 55 53 52 51 51 51 51 49 49 48 50 49 48 48 46 48 48 48 48 48 49 48 48 47 46 46 46 45 45 47 46 45 44 44 42 40 39 37 38 38 36 32 26 28 27 29 30
63 63 62 62 62 61 61 60 60 60 59 59 59 56 57 56 55 53 51 51 52 51 51 49 48 48 49 48 48 48 48 49 48 47 48 47 48 48 48 48 47 46 45 46 46 47 46 47 46 44 43 41 40 39 37 37 38 37 32 28 28 28 30
63 63 62 61 62 61 61 60 60 59 58 58 57 55 56 55 53 52 51 51 51 50 49 47 46 48 49 49 48 47 47 48 48 49 49 48 48 48 48 46 46 46 47 46 45 45 46 46 47 45 42 43 41 39 39 37 37 38 37 37 33 30 30
63 63 62 62 61 60 60 60 58 58 59 58 56 55 54 52 53 52 51 50 50 48 48 48 48 48 48 48 48 48 48 48 47 46 47 47 47 47 46 46 45 45 46 46 46 46 45 45 44 42 42 44 45 41 40 39 35 38 38 37 38 34 33
63 62 62 61 60 59 59 58 57 58 58 58 55 53 52 51 51 50 50 49 48 47 46 48 48 47 48 47 47 47 46 45 44 45 46 46 46 47 47 45 45 46 48 47 45 45 45 44 44 43 43 44 43 43 41 40 36 35 39 39 39 37 34
62 62 61 60 59 59 58 57 56 56 55 57 54 52 52 51 49 49 48 47 45 46 47 48 48 48 48 47 47 45 45 43 43 45 45 46 45 44 43 41 42 43 45 45 45 46 43 43 44 45 44 43 42 43 40 38 36 35 36 41 40 39 36
62 61 61 60 59 58 56 57 56 55 55 55 52 50 50 50 49 48 47 46 45 44 45 45 47 48 46 46 46 48 46 43 41 42 45 43 45 47 46 40 41 44 45 44 45 39 40 43 41 42 39 41 40 41 41 39 37 37 35 37 38 35 34
61 60 60 60 58 56 56 56 55 54 54 54 52 51 50 50 48 47 46 46 44 44 44 44 48 48 47 44 43 47 47 44 45 44 43 42 40 43 44 45 44 46 47 46 45 45 45 43 42 42 41 41 41 42 40 40 39 37 35 35 35 32 32
61 60 59 58 57 56 56 55 54 53 52 52 51 52 50 48 48 47 46 44 44 44 44 46 46 44 44 43 43 44 44 45 44 43 42 39 40 43 43 44 46 46 46 45 44 44 43 44 43 43 43 41 40 40 40 41 41 38 36 34 33 31 32
60 59 57 56 56 56 55 54 53 52 52 51 50 50 50 48 47 46 47 43 43 43 44 44 44 44 46 46 44 44 42 42 45 43 43 43 43 42 44 45 44 45 45 46 44 41 42 43 42 42 43 39 38 40 40 39 38 38 35 33 33 33 33
59 57 56 56 55 55 54 54 53 52 49 49 49 49 48 47 46 44 43 43 43 43 42 43 42 42 43 45 45 45 45 45 44 42 42 44 43 45 45 43 46 44 44 44 43 42 41 40 41 42 41 39 36 37 38 36 37 36 34 33 32 31 32
58 56 56 55 55 54 54 53 52 50 49 49 49 49 48 47 47 44 43 43 43 43 42 42 43 43 43 43 43 44 45 45 44 43 43 43 42 45 45 43 44 44 42 43 42 39 38 38 40 40 40 38 36 36 35 35 33 32 33 31 30 30 30
57 56 55 55 54 54 53 53 51 50 49 49 49 47 46 46 46 44 44 43 44 45 47 44 42 42 43 44 45 45 45 45 42 44 46 42 45 44 44 45 42 39 39 37 39 39 38 37 39 39 38 38 37 36 35 35 34 32 31 31 30 29 30
56 55 54 54 54 53 53 52 51 49 49 50 49 46 46 46 45 43 44 45 45 46 47 48 48 43 45 47 48 46 45 43 43 44 43 43 44 44 45 44 37 36 39 34 31 37 37 41 41 38 38 37 38 37 36 35 35 33 31 31 29 31 30
55 54 54 53 53 53 53 52 50 48 49 48 48 47 45 45 44 44 45 49 50 50 50 50 49 46 48 45 44 44 45 45 43 44 44 44 44 44 43 40 39 33 34 35 41 41 40 40 40 41 40 38 38 38 37 37 36 35 34 31 29 29 30
54 54 53 53 53 54 53 51 49 48 48 47 48 50 48 45 52 50 49 49 49 48 48 48 40 38 39 42 44 46 44 45 44 44 45 44 44 44 45 36 37 39 40 40 43 42 40 39 38 39 40 41 43 40 37 37 37 37 36 34 33 32 31
54 53 53 53 53 53 52 51 47 47 48 48 50 49 47 50 49 49 49 48 47 46 46 45 38 38 38 39 44 47 46 45 45 44 45 42 42 43 44 40 39 43 43 42 42 42 42 41 39 38 37 36 37 38 40 38 36 36 36 34 33 33 33
53 53 53 53 53 52 51 50 47 47 47 48 48 48 48 48 48 47 47 48 47 45 46 39 38 38 38 37 37 44 43 44 44 45 44 43 42 43 43 45 44 44 43 40 40 42 39 40 42 39 39 39 39 37 35 35 37 37 37 35 35 34 34
53 52 52 52 53 52 50 47 48 48 47 47 47 47 47 47 47 47 46 46 46 45 46 40 38 38 37 37 36 40 44 45 46 44 43 42 48 45 45 43 43 43 44 43 44 40 38 38 38 39 41 42 43 43 40 37 35 35 38 36 36 34 36
52 52 52 52 51 50 49 48 48 47 46 46 46 46 46 45 44 45 46 46 46 45 47 39 37 37 37 37 36 38 46 48 43 46 46 47 46 46 46 46 45 44 43 43 40 40 37 37 37 38 39 41 42 41 42 43 40 38 38 37 36 37 36
52 51 51 51 50 49 48 48 48 48 48 47 47 46 46 45 44 45 46 45 45 44 47 38 37 37 37 36 36 45 47 47 46 46 46 45 46 45 46 46 43 43 42 38 39 36 38 39 37 37 39 41 41 41 42 46 41 39 41 39 37 36 35
52 51 51 51 49 49 48 48 47 48 47 46 46 46 45 45 45 45 45 44 45 47 43 39 37 37 36 36 38 42 45 44 46 46 46 46 44 45 46 43 42 43 44 39 37 35 36 38 38 38 39 40 41 41 42 47 39 36 36 35 35 35 35
53 52 52 50 49 49 48 48 48 47 48 44 44 42 41 41 42 43 42 43 46 46 42 39 37 36 36 36 39 42 43 43 46 44 44 45 44 44 45 47 40 43 42 36 35 35 34 40 39 38 38 38 38 39 39 38 37 37 36 36 36 36 36
53 52 51 49 49 48 48 47 46 45 45 42 40 38 37 38 38 39 42 44 48 46 43 40 37 36 36 36 38 43 40 40 42 40 40 42 44 44 42 44 44 41 40 40 34 35 34 38 39 38 38 38 38 38 37 36 34 34 35 35 36 37 39
51 50 49 49 49 48 47 45 44 43 41 39 37 37 36 35 37 40 44 45 49 45 43 40 39 36 36 36 37 40 41 41 37 39 41 40 41 43 41 40 37 33 32 34 34 33 34 35 38 40 39 37 37 37 39 36 35 35 35 36 35 39 39
51 50 49 49 48 47 45 44 43 43 41 39 38 37 39 41 44 46 45 46 48 45 43 40 39 36 36 36 36 38 42 43 42 42 40 40 38 39 39 34 33 33 32 33 33 33 35 35 36 39 39 37 38 39 36 35 36 39 35 35 38 38 36
50 50 48 48 47 46 46 44 44 43 41 39 39 42 44 43 44 48 48 47 46 46 44 43 40 37 36 36 35 35 39 41 42 40 41 39 37 37 39 37 32 32 32 33 34 35 35 35 35 39 37 35 34 34 35 36 36 35 34 35 35 35 35
50 49 48 47 47 47 46 44 43 41 41 41 41 42 45 46 46 45 43 44 44 44 42 42 39 38 36 35 35 35 35 37 33 41 40 40 40 38 39 42 38 34 32 33 34 34 35 35 35 35 35 34 34 34 35 36 35 35 34 36 37 36 35
50 48 48 48 47 46 45 44 43 41 42 41 42 44 45 45 46 45 43 43 43 43 41 40 38 37 36 34 34 34 33 32 32 37 40 38 39 37 39 36 34 32 33 34 34 34 34 35 34 34 34 34 34 34 34 35 34 34 36 36 37 35 34